Location: Cactus School
(34.5700°N, 118.0931°W)
Time: 12:41:37
(UTC-07:00)

SR - Visible Passes

Search period start: 19 April 2024 00:00
Search period end: 29 April 2024 00:00
Orbit: 577 x 863 km, 66.7° (Epoch: 19 April)

Date Brightness Start Highest point End Pass type
(mag) Time Alt. Az. Time Alt. Az. Time Alt. Az.
19 Apr ? 02:01:49 16° NE 02:01:49 16° NE 02:02:56 10° NE visible
19 Apr ? 03:41:03 20° NW 03:41:03 20° NW 03:43:54 10° N visible
20 Apr ? 02:50:15 25° N 02:50:15 25° N 02:52:35 10° NNE visible
21 Apr ? 01:59:24 18° NNE 01:59:24 18° NNE 02:00:43 10° NNE visible
21 Apr ? 03:38:38 13° NW 03:38:38 13° NW 03:40:17 10° NNW visible
22 Apr ? 02:47:44 19° NNW 02:47:44 19° NNW 02:49:43 10° N visible
23 Apr ? 01:56:48 19° NNE 01:56:48 19° NNE 01:58:12 10° NNE visible
24 Apr ? 01:05:48 12° NNE 01:05:48 12° NNE 01:06:10 10° NNE visible
24 Apr ? 02:45:01 14° NNW 02:45:01 14° NNW 02:46:21 10° NNW visible
25 Apr ? 01:53:59 17° N 01:53:59 17° N 01:55:22 10° N visible
26 Apr ? 01:02:53 15° NNE 01:02:53 15° NNE 01:03:40 10° NNE visible
27 Apr ? 01:50:56 14° NNW 01:50:56 14° NNW 01:52:09 10° N visible
28 Apr ? 00:59:44 16° N 00:59:44 16° N 01:00:53 10° N visible
